This is the latest recevied weather packets stored in our database for station/object G1OCN-WX. If no packets are shown the sender has not sent any weather packets the latest 1 day(s).
| Time | Temp. | Humidity | Pressure | Rain* | Wind** | Luminosity | Snow |
|---|---|---|---|---|---|---|---|
| 1778050040 | 8.33° C | 85% | 1013.2 hPa | 0 mm | 5.36 m/s, 63° | - | - |
| 1778049980 | 8.33° C | 85% | 1013.2 hPa | 0 mm | 5.81 m/s, 63° | - | - |
| 1778049919 | 8.33° C | 85% | 1013.2 hPa | 0 mm | 5.36 m/s, 64° | - | - |
| 1778049859 | 8.33° C | 85% | 1013.2 hPa | 0 mm | 4.02 m/s, 61° | - | - |
| 1778049799 | 8.33° C | 85% | 1013.2 hPa | 0 mm | 5.36 m/s, 61° | - | - |
| 1778049739 | 8.33° C | 85% | 1013.1 hPa | 0 mm | 5.36 m/s, 65° | - | - |
| 1778049679 | 8.33° C | 85% | 1013.2 hPa | 0 mm | 5.36 m/s, 63° | - | - |
| 1778049619 | 8.33° C | 85% | 1013.2 hPa | 0 mm | 5.81 m/s, 62° | - | - |
| 1778049559 | 8.33° C | 85% | 1013.2 hPa | 0 mm | 5.81 m/s, 67° | - | - |
| 1778049499 | 8.33° C | 85% | 1013.2 hPa | 0 mm | 5.81 m/s, 65° | - | - |
| 1778049439 | 8.33° C | 85% | 1013.2 hPa | 0 mm | 6.26 m/s, 70° | - | - |
| 1778049379 | 8.33° C | 85% | 1013.2 hPa | 0 mm | 6.26 m/s, 66° | - | - |
| 1778049319 | 8.33° C | 85% | 1013.2 hPa | 0 mm | 5.36 m/s, 64° | - | - |
| 1778049259 | 8.33° C | 85% | 1013.1 hPa | 0 mm | 4.47 m/s, 55° | - | - |
| 1778049199 | 8.33° C | 85% | 1013.1 hPa | 0 mm | 5.36 m/s, 57° | - | - |
| 1778049139 | 8.89° C | 85% | 1013.2 hPa | 0 mm | 5.36 m/s, 63° | - | - |
| 1778049079 | 8.89° C | 85% | 1013.1 hPa | 0 mm | 4.47 m/s, 59° | - | - |
| 1778049018 | 8.89° C | 85% | 1013.1 hPa | 0 mm | 5.36 m/s, 59° | - | - |
| 1778048958 | 8.89° C | 85% | 1013.1 hPa | 0 mm | 4.47 m/s, 57° | - | - |
| 1778048898 | 8.89° C | 85% | 1013.1 hPa | 0 mm | 4.47 m/s, 59° | - | - |
| 1778048838 | 8.89° C | 85% | 1013.1 hPa | 0 mm | 5.81 m/s, 56° | - | - |
| 1778048778 | 8.89° C | 85% | 1013.1 hPa | 0 mm | 5.81 m/s, 62° | - | - |
| 1778048718 | 8.89° C | 85% | 1013.1 hPa | 0 mm | 5.81 m/s, 62° | - | - |
| 1778048658 | 8.89° C | 85% | 1013.1 hPa | 0 mm | 5.36 m/s, 58° | - | - |
| 1778048598 | 8.89° C | 85% | 1013.1 hPa | 0 mm | 4.47 m/s, 60° | - | - |
* Rain latest hour (hover to see other rain measurements)
** Current wind speed in m/s (hover to see current wind gust speed)